Temp
21 21 21 21 21 21 22 22 22 22 23 22 22 22 22 22 22 22 22 22 22 21 21 22 22 22 22 22 22 22 22 22 23 22 22 22 22 22 22 22 22 22 22 22 22 22 22 22 22 22 22 22 22 22 22 22 22 22 22 22 22 22 22 22 22 22 22 22 22 22 21 21 21 21 21 21 21 21 21 21 21 21 21 21 21
22 22 21 21 21 22 22 22 22 22 22 22 22 22 22 22 22 22 22 22 22 22 22 22 22 22 22 22 22 22 22 22 22 22 22 22 22 22 22 22 22 22 22 22 22 22 22 22 22 22 22 22 22 22 22 22 22 22 22 22 22 22 22 22 22 22 22 22 21 22 21 21 21 21 21 21 21 21 21 21 21 21 21 21 21
22 22 22 21 22 22 22 22 22 22 22 22 22 22 22 22 22 22 22 22 22 22 22 22 22 22 22 22 22 22 22 22 22 22 22 22 22 22 22 22 22 22 22 22 22 22 22 22 22 22 22 22 22 22 22 22 22 22 22 22 22 22 21 21 21 21 22 21 21 21 21 21 21 21 21 21 21 21 21 21 21 21 21 21 21
22 22 21 22 22 22 22 22 22 22 22 22 22 22 22 22 22 22 22 22 22 22 22 22 22 22 22 22 22 22 22 22 22 22 22 22 22 22 22 22 22 22 22 22 22 22 22 22 22 22 22 22 22 22 22 22 22 22 22 22 22 21 21 22 21 21 22 21 21 21 21 21 21 21 21 21 21 21 21 21 21 21 21 21 21
22 21 21 21 21 21 21 22 22 22 22 22 22 22 22 22 22 22 22 22 22 22 22 22 22 22 22 22 22 22 22 22 22 22 22 22 22 21 22 22 22 22 22 22 22 22 22 22 22 22 22 22 22 22 22 22 22 22 21 22 21 21 21 21 21 22 22 22 22 21 21 21 21 21 21 21 21 21 21 21 21 21 21 21 21
21 21 21 21 21 21 22 22 22 22 22 22 22 22 22 22 22 22 22 22 22 22 22 22 22 22 22 22 22 21 22 22 22 22 22 22 22 21 22 22 22 22 22 22 22 22 22 22 22 22 22 22 22 22 22 21 21 21 21 21 21 21 21 21 21 21 22 22 21 21 21 21 21 21 21 21 21 21 21 21 21 21 21 21 21
22 21 21 21 21 22 22 22 22 22 22 22 22 22 21 21 21 22 21 22 22 21 22 22 22 22 22 22 21 21 21 22 22 22 22 21 22 22 21 22 22 22 22 22 22 22 22 22 22 22 22 22 22 22 21 21 21 21 21 21 21 21 21 21 21 21 22 22 21 21 21 21 21 21 21 21 21 21 21 21 21 21 21 21 21
21 21 21 22 22 22 22 22 22 22 22 22 22 21 21 21 21 21 21 22 22 22 22 22 22 22 22 21 21 21 21 22 22 21 21 21 21 22 21 21 22 22 22 22 22 22 22 22 22 22 22 22 22 22 22 22 22 21 21 21 21 21 21 21 21 21 21 21 21 21 21 21 21 21 21 21 21 21 21 21 21 21 21 21 21
21 21 21 22 22 22 22 21 21 22 22 21 21 21 21 21 21 21 21 21 22 22 21 21 21 22 21 21 21 21 21 21 21 21 21 21 21 21 21 21 22 22 22 22 22 22 22 22 22 22 22 22 21 22 22 22 22 21 21 21 21 21 21 21 21 21 21 21 21 21 21 21 21 21 21 21 21 21 21 21 21 21 21 21 21
21 21 22 22 22 22 22 22 21 21 21 21 21 21 21 21 21 21 21 21 21 21 21 21 21 21 22 21 21 21 21 21 21 21 21 21 21 21 21 21 22 22 21 21 22 22 22 22 22 22 22 22 21 22 22 22 22 21 21 21 21 21 21 21 21 21 21 21 21 21 21 21 21 21 21 21 21 21 21 21 21 21 21 21 21
21 22 22 22 22 22 22 22 21 21 21 21 21 21 21 21 21 21 21 21 21 21 21 21 21 21 21 21 21 21 21 21 21 21 21 21 21 21 21 22 22 22 22 21 22 22 22 22 22 22 22 21 22 22 22 22 22 21 22 21 21 21 21 21 21 21 21 21 21 21 21 21 21 21 21 21 21 21 21 21 21 21 21 21 20
22 22 22 22 22 21 22 22 22 21 21 21 21 21 21 21 21 21 21 21 21 21 21 21 21 21 21 21 21 21 21 21 21 21 21 21 21 21 22 22 22 22 22 21 22 22 22 22 22 22 22 21 22 22 22 22 22 22 22 22 22 21 21 21 21 21 21 22 21 21 21 21 21 21 21 21 21 21 21 21 20 20 20 20 20
22 22 21 21 21 22 22 21 21 21 21 21 21 21 21 21 21 21 21 21 21 21 21 21 21 21 21 21 21 21 21 21 21 21 21 21 21 21 21 22 22 22 22 22 22 22 22 21 22 22 22 22 22 22 22 22 22 22 22 22 22 22 21 21 21 21 22 22 22 21 21 21 21 21 21 21 20 20 20 20 20 20 20 20 20
21 21 21 21 21 22 22 22 21 21 21 21 21 21 21 22 21 21 21 21 21 21 21 21 21 21 21 21 21 21 21 21 21 21 21 21 21 21 21 21 22 22 22 22 22 22 22 22 22 22 22 23 23 22 22 22 22 22 22 22 22 22 22 21 21 22 22 22 22 22 21 21 21 21 21 20 20 20 20 20 20 20 20 20 20
21 22 21 21 21 21 22 21 21 21 21 21 21 21 21 21 21 21 21 21 21 21 21 21 21 21 21 21 21 21 21 21 21 21 21 21 21 21 21 21 22 21 21 22 22 22 22 22 22 22 23 23 23 23 23 23 23 22 22 22 22 22 22 22 22 22 22 22 22 22 22 21 21 21 20 20 20 20 20 20 20 20 20 20 20
22 22 21 21 21 21 21 21 21 21 21 21 21 21 21 21 21 21 21 21 21 21 21 21 21 21 21 21 21 21 21 21 21 21 21 21 21 21 21 22 21 21 22 22 22 22 22 22 23 23 23 23 23 23 23 23 23 22 22 22 22 22 22 22 22 22 22 22 22 22 22 21 21 21 20 20 20 20 20 20 20 20 20 20 20
22 21 21 21 21 21 21 21 21 21 21 21 21 21 21 21 21 21 21 21 21 21 21 21 21 21 21 21 21 21 21 21 21 21 21 21 21 21 21 22 21 22 22 22 21 22 22 23 23 23 23 24 23 23 23 23 23 22 22 22 22 22 22 22 22 22 22 23 22 22 22 21 21 21 20 20 20 20 20 20 20 20 20 20 20
21 21 21 21 21 21 21 21 21 21 21 21 21 21 21 21 21 21 21 21 21 21 21 21 21 21 21 21 21 21 21 21 21 21 21 21 21 21 21 22 22 22 22 21 22 22 23 23 23 24 24 24 24 23 23 23 23 23 22 22 22 22 22 22 22 22 22 22 23 22 22 21 21 20 20 20 20 20 20 20 20 20 20 20 20
21 21 21 21 21 21 21 21 21 21 21 21 21 21 21 21 21 21 21 21 21 21 21 21 21 21 21 21 21 21 21 21 21 21 21 21 21 21 21 22 22 22 22 22 23 23 24 24 24 24 24 24 24 24 23 23 23 23 23 23 23 22 22 22 22 22 22 22 23 23 22 21 21 20 20 20 20 20 20 20 20 20 20 20 20
21 21 21 21 21 21 21 21 21 21 21 21 21 21 21 21 21 21 21 21 21 21 21 21 21 21 21 21 21 21 21 21 21 21 21 21 21 22 22 22 22 23 23 23 23 24 24 24 24 24 24 24 24 24 24 24 24 24 24 24 23 22 22 22 23 22 22 23 23 22 22 22 21 20 20 20 20 20 20 20 20 20 20 20 20
21 21 21 21 21 21 21 20 21 21 21 21 21 21 21 21 21 21 21 21 21 21 21 21 21 21 21 22 21 21 21 21 21 21 21 21 21 21 22 22 23 23 23 23 24 24 24 24 24 24 24 24 24 24 24 24 24 24 24 24 23 23 23 23 23 23 23 23 23 22 22 22 21 21 21 20 20 20 20 20 20 20 20 20 20
21 21 21 21 21 20 21 20 21 21 21 21 21 21 21 21 21 21 21 21 21 21 21 21 21 21 21 21 21 21 21 21 21 21 21 21 21 22 22 23 23 23 24 24 24 24 24 24 24 24 24 24 24 24 24 24 24 24 24 23 23 23 23 23 23 23 24 23 23 23 23 22 21 21 21 20 20 20 20 20 20 20 20 20 20
21 21 21 21 20 20 21 21 21 21 21 21 21 21 21 21 21 21 21 21 21 21 21 21 21 21 21 22 22 22 22 22 22 21 21 21 22 23 23 24 23 24 24 24 24 24 24 24 24 24 24 24 25 25 25 25 25 25 24 24 24 24 24 24 24 24 24 24 23 23 23 22 21 21 21 20 20 21 21 21 21 21 21 20 20
21 21 21 21 20 21 21 21 21 21 21 21 21 21 21 21 21 21 21 21 22 22 22 21 21 21 21 22 22 22 22 22 22 22 22 23 23 24 24 24 24 24 24 24 24 24 24 24 24 24 24 25 25 25 25 25 25 25 25 25 24 24 24 24 24 24 24 24 24 23 23 22 22 21 21 21 21 21 21 22 22 22 22 21 21
21 21 21 21 21 21 21 21 21 21 21 21 21 21 21 21 21 21 21 22 22 22 22 22 21 21 21 22 22 22 22 23 23 23 23 24 24 24 24 24 24 24 23 23 23 23 23 24 24 24 24 24 24 25 25 25 25 25 25 25 24 25 25 24 24 25 25 24 24 23 23 22 22 22 21 21 22 22 22 23 23 23 22 22 21
21 21 21 21 21 21 21 21 21 21 21 21 21 21 21 21 21 21 21 22 22 22 22 22 22 22 22 22 22 22 23 23 23 23 24 24 24 24 24 24 24 23 23 23 23 23 23 23 23 24 24 24 24 24 25 25 25 25 26 25 24 24 25 24 25 25 25 25 24 24 23 23 23 22 22 23 23 23 23 24 24 23 23 22 22
22 22 22 21 21 21 21 21 21 21 21 22 22 22 21 21 21 22 21 21 21 21 22 22 22 22 22 23 23 23 23 23 23 23 24 24 24 24 24 24 24 23 23 23 23 24 24 24 24 24 24 24 25 25 25 25 25 25 26 25 25 25 25 25 25 25 25 25 25 24 24 24 24 23 23 24 24 24 24 24 24 23 23 23 22
22 22 22 21 21 21 21 21 21 21 21 22 22 22 22 22 22 22 22 22 21 21 22 22 22 22 23 23 23 23 23 23 23 23 24 24 24 24 24 23 23 24 24 24 24 24 24 24 24 24 24 25 25 25 26 26 26 26 26 26 26 25 25 25 26 26 26 25 25 25 25 25 24 24 24 24 24 24 24 24 24 24 24 23 23
22 22 22 22 22 22 22 21 21 21 21 22 22 22 22 22 22 22 22 22 22 22 22 22 22 23 23 23 23 23 23 23 23 23 23 23 23 23 24 24 24 24 24 24 24 25 25 25 25 25 25 25 25 26 26 26 26 26 26 26 26 26 26 26 26 26 26 26 26 26 25 25 25 25 25 25 24 24 24 24 24 24 24 23 23
23 23 23 23 23 22 22 22 22 22 22 22 22 22 22 23 23 23 23 22 22 22 22 23 23 23 23 23 24 24 24 24 24 23 24 23 23 24 24 24 24 24 24 24 24 25 25 25 25 25 25 25 26 26 27 27 27 27 26 26 27 27 26 26 26 26 26 26 26 26 26 25 25 25 25 25 25 24 24 24 24 24 24 24 23
23 23 23 23 23 23 23 22 22 23 22 22 22 22 23 23 23 23 23 23 23 23 23 23 23 23 23 23 24 24 24 24 24 24 24 24 24 24 24 24 24 24 24 24 25 25 25 25 25 25 25 26 26 26 27 27 27 27 27 27 27 27 27 26 26 26 26 26 26 26 26 25 25 25 25 25 25 25 25 25 24 24 24 24 24
23 23 23 23 23 23 23 23 23 23 23 23 23 23 23 23 23 23 23 23 23 23 23 23 23 23 23 23 24 24 24 24 24 24 24 24 24 24 24 24 24 24 24 24 25 25 25 25 25 25 26 26 27 27 27 27 27 27 27 27 27 27 27 27 27 26 26 26 26 26 26 26 26 25 25 25 25 25 25 25 25 24 24 24 24
23 23 23 23 23 23 23 23 23 23 23 23 23 23 24 24 23 23 23 23 23 23 23 24 24 24 24 24 24 24 24 24 24 24 24 24 24 24 24 24 24 24 24 25 25 25 25 25 25 26 26 27 27 28 28 28 27 27 28 27 27 27 27 27 27 27 27 27 27 26 26 26 26 26 26 26 25 25 25 25 25 25 25 25 25
23 23 23 23 24 23 23 23 23 23 24 24 24 24 24 24 24 24 23 23 24 24 24 24 24 24 24 24 24 24 25 25 24 24 24 24 24 24 24 24 24 24 24 25 25 25 25 25 26 26 27 27 28 28 28 28 28 28 28 28 27 27 27 27 27 27 27 27 27 27 26 26 26 26 26 26 26 26 26 25 25 25 25 25 25
24 24 24 24 24 24 23 23 24 24 24 24 24 24 24 24 24 24 24 24 24 24 24 24 24 24 24 25 24 25 25 24 24 24 24 24 24 24 24 24 24 24 25 25 25 25 26 26 26 26 27 27 28 28 28 28 28 28 28 28 28 28 28 27 27 27 27 27 27 27 27 27 27 27 27 26 26 26 26 26 26 25 25 25 25
24 24 24 24 24 24 24 24 24 24 24 24 24 24 25 25 24 24 24 24 24 24 24 24 25 25 25 25 25 25 25 24 24 24 24 24 24 24 25 25 25 25 25 25 25 26 26 26 26 26 27 27 28 28 28 28 29 28 28 28 28 28 28 28 28 28 28 28 28 27 27 27 27 27 27 27 26 26 26 26 26 26 26 26 26
25 25 25 24 24 24 24 24 24 24 24 25 25 25 25 25 25 25 24 24 25 25 25 25 25 25 25 25 25 25 24 25 25 25 25 24 24 24 24 24 25 25 25 25 25 26 26 26 26 26 27 27 28 28 28 28 29 28 28 28 28 28 28 28 28 28 28 28 28 28 28 27 27 27 27 27 27 26 26 26 26 26 26 26 26
25 25 25 25 25 25 25 25 25 25 25 25 25 25 25 25 25 25 25 25 25 25 25 25 25 25 25 25 25 24 24 24 25 25 24 24 24 24 24 24 25 25 25 25 26 26 26 26 26 27 27 27 28 28 28 28 29 29 28 28 29 28 28 28 28 28 28 28 28 28 28 28 28 28 27 27 27 27 27 27 26 26 26 26 26
26 25 25 25 25 25 25 25 25 25 25 25 25 25 25 25 25 25 25 25 25 25 25 25 25 25 25 24 24 24 24 24 24 25 25 24 24 24 24 24 25 25 25 25 26 26 26 26 26 27 27 28 28 28 28 28 29 29 29 29 28 28 28 28 28 28 28 28 28 28 28 28 28 28 28 27 27 27 27 27 27 27 27 26 26
26 26 26 26 26 25 25 25 25 25 25 26 26 26 26 25 26 26 25 25 25 25 25 25 25 25 24 24 24 24 24 24 25 25 25 24 24 24 24 25 25 25 25 25 25 26 26 26 26 27 27 28 28 28 28 28 29 29 28 28 28 28 28 28 28 28 28 28 28 28 28 28 28 28 28 28 28 28 28 27 27 27 27 27 27
26 26 26 26 26 26 26 25 25 26 26 26 26 26 26 26 26 26 25 25 25 25 25 25 25 25 25 24 24 24 24 24 25 24 24 24 24 24 24 25 25 25 25 25 25 26 26 26 26 27 27 28 28 28 28 29 28 28 28 28 28 28 28 28 28 28 29 29 28 28 28 28 28 28 28 28 28 28 28 28 28 27 27 27 27
26 26 26 26 26 26 26 25 25 26 26 26 26 26 26 26 26 26 26 25 25 25 25 25 25 24 25 24 24 24 24 24 25 25 25 24 24 24 24 25 25 25 25 25 25 25 25 26 26 26 27 27 28 28 28 29 28 28 28 28 28 28 29 28 28 29 29 29 29 29 29 28 28 28 28 28 28 28 28 28 28 28 28 28 27
26 26 26 26 26 25 25 25 25 25 25 26 26 26 26 26 26 26 26 26 25 25 25 25 25 25 24 24 24 24 24 24 24 25 25 24 25 25 24 25 25 25 25 25 25 25 26 26 26 26 27 27 27 27 28 28 28 28 28 28 26 26 28 28 28 29 29 29 29 29 29 29 29 29 29 29 28 28 28 28 28 28 28 28 28
26 26 26 26 25 25 25 25 25 25 25 25 26 25 25 25 26 26 26 26 25 25 25 25 25 25 24 24 24 25 25 25 24 24 25 25 25 25 25 25 25 25 25 25 25 26 26 26 26 26 26 27 27 27 27 28 28 28 27 26 24 25 27 27 27 29 29 29 30 29 29 29 29 29 29 29 29 28 28 28 28 28 28 28 28
26 26 26 26 25 25 25 25 25 25 25 25 25 25 25 25 25 25 25 25 25 25 25 24 24 24 24 24 24 25 25 25 25 24 24 24 25 25 25 25 25 25 25 25 25 26 26 26 26 26 26 27 27 27 28 28 28 28 27 26 25 26 27 26 26 28 29 29 29 29 29 29 29 29 29 29 29 28 29 29 28 28 28 28 28
26 26 26 26 25 25 25 25 25 25 25 25 25 25 25 25 25 25 25 25 25 25 25 24 24 24 24 24 24 25 25 25 25 24 24 24 25 25 25 25 25 25 25 25 26 26 26 26 26 26 26 26 27 27 28 28 28 28 27 27 28 28 27 27 27 28 29 29 29 29 29 29 29 29 29 29 29 29 29 29 28 28 28 28 28
26 26 26 26 26 25 25 25 25 25 25 25 25 25 25 25 25 25 25 25 25 25 25 25 25 25 25 24 24 24 24 24 24 24 24 24 24 24 24 25 25 25 25 25 25 26 26 26 26 26 26 26 27 27 27 27 27 27 27 28 28 28 28 27 27 27 28 29 29 29 29 29 29 29 29 29 29 29 29 29 29 29 29 28 28
26 26 26 26 26 26 25 25 25 25 25 25 25 25 26 25 25 25 25 25 25 25 25 25 25 25 25 25 24 24 24 24 24 24 24 24 24 25 25 25 25 25 25 25 25 26 26 26 26 26 26 26 26 26 26 27 27 27 27 28 28 28 28 28 27 27 26 27 28 28 29 29 29 29 29 29 29 29 29 29 29 29 29 28 28
26 26 26 26 26 26 25 25 25 25 25 25 25 25 26 26 25 25 25 25 25 25 25 25 25 25 25 25 25 24 24 24 25 24 24 25 25 25 25 25 25 25 25 25 25 26 26 26 26 26 26 26 26 26 26 27 26 27 27 27 27 28 28 28 28 27 26 27 27 26 27 28 28 29 29 29 29 29 29 29 29 29 28 28 29
27 26 26 26 26 26 25 25 25 25 25 25 25 25 25 26 25 25 25 25 25 25 25 25 25 25 25 25 25 25 24 24 25 24 24 25 25 25 25 25 25 25 25 25 25 26 25 26 26 26 26 26 26 26 26 27 27 27 27 27 27 27 28 27 27 27 27 26 27 25 26 26 26 28 29 29 29 29 29 29 29 29 28 28 28
27 27 26 26 26 25 25 25 25 25 25 25 25 25 25 25 25 26 25 25 25 25 25 25 25 25 25 25 25 25 25 25 25 24 24 24 24 25 25 25 25 25 25 25 25 26 26 25 25 25 26 26 26 26 26 27 27 27 27 27 27 27 27 27 27 27 27 26 26 26 26 26 26 27 28 29 29 29 29 29 29 29 29 28 28
Height
826 827 829 828 830 830 831 830 830 830 830 830 830 831 831 832 831 831 831 831 831 831 832 832 832 832 833 832 833 833 833 833 833 834 833 833 833 833 833 834 835 835 836 836 836 835 836 836 836 835 835 836 836 837 838 839 839 840 840 840 840 840 839 839 839 840 840 839 839 839 839 840 840 840 840 840 840 840 840 840 840 841 841 841 841
826 827 828 829 831 831 832 831 831 830 830 831 831 832 832 832 832 832 832 832 832 832 833 833 833 833 833 833 833 834 834 834 834 835 835 835 834 835 835 835 836 837 837 837 837 837 837 837 837 837 837 837 838 839 839 840 840 841 841 841 841 841 841 841 841 841 841 841 841 841 841 841 841 841 841 841 841 841 841 841 841 842 842 843 843
826 828 829 830 831 831 832 831 831 831 832 832 832 833 832 833 832 832 832 833 833 833 833 833 834 834 834 834 834 834 835 835 835 836 836 836 836 837 836 837 837 838 838 838 838 838 838 838 838 838 838 838 839 840 841 841 841 842 842 843 843 843 843 842 842 842 842 842 842 842 842 842 842 842 842 842 842 842 843 843 843 843 843 844 844
828 829 830 830 831 832 832 832 832 832 833 833 833 833 833 833 833 833 833 834 833 833 834 834 835 835 835 835 835 835 836 836 836 836 836 837 838 838 838 838 838 839 839 839 839 839 839 839 840 840 840 840 841 841 842 843 842 843 843 844 844 844 844 844 844 844 844 844 844 843 843 843 843 843 844 844 844 844 844 844 844 844 845 845 845
829 829 830 831 831 832 833 833 833 833 833 833 833 833 834 833 833 834 834 834 834 834 834 835 835 835 835 836 836 836 837 837 837 838 838 838 839 840 840 840 840 840 840 840 840 840 840 841 841 841 842 842 842 843 844 844 844 844 844 845 845 846 846 845 845 845 845 845 845 844 844 845 845 845 845 845 845 845 845 845 845 846 846 846 846
829 830 831 831 832 833 833 834 834 834 834 834 834 834 834 834 834 834 835 835 835 835 835 835 835 835 836 836 837 838 838 838 838 839 839 840 841 842 842 841 841 841 841 841 842 842 842 842 842 843 843 843 844 844 845 845 845 845 846 846 846 847 847 847 847 847 847 847 846 846 846 846 846 846 846 847 846 846 846 846 847 847 847 847 847
829 830 831 831 832 833 834 834 834 834 834 834 835 835 835 835 835 835 835 835 835 836 836 836 836 836 836 837 838 838 839 839 840 840 841 842 842 843 843 842 842 842 843 843 843 843 843 843 844 844 845 845 845 846 846 846 846 846 847 847 847 848 848 848 848 848 848 848 848 847 847 847 847 847 848 848 848 848 847 848 847 848 848 848 848
830 831 832 833 833 834 834 834 835 835 835 835 835 836 836 836 836 836 836 836 836 836 836 836 836 837 837 838 839 839 840 840 841 842 843 843 844 844 844 843 843 844 844 844 844 844 845 845 845 845 846 846 846 847 847 847 847 848 848 848 848 849 849 849 849 849 849 849 849 849 849 848 849 848 849 849 849 849 848 849 848 849 849 849 850
831 832 833 834 834 834 835 835 835 835 835 836 836 836 836 836 836 836 836 836 836 836 837 837 837 838 838 839 840 841 841 842 842 843 844 844 845 844 844 844 844 844 845 845 846 846 846 846 847 847 847 847 848 848 848 848 848 849 849 849 850 850 850 850 850 850 850 851 851 850 850 850 850 850 850 850 850 850 850 850 849 850 850 850 851
832 833 834 834 834 835 835 835 836 836 836 836 836 836 836 837 837 837 837 837 837 837 837 838 838 838 839 840 841 841 842 843 844 845 844 844 845 845 845 845 845 845 846 847 847 848 848 848 848 848 849 849 849 849 849 850 850 850 850 851 851 851 851 852 851 851 851 851 852 851 851 851 851 851 851 851 851 851 851 851 851 851 851 851 852
832 833 834 834 835 835 835 836 836 837 837 837 837 836 837 837 837 837 837 837 837 838 838 839 839 840 840 841 842 842 843 844 845 845 845 846 846 846 846 846 846 847 847 848 848 849 849 849 849 850 850 850 850 850 851 851 851 851 851 852 852 852 853 853 853 852 853 853 853 852 852 852 852 852 852 852 852 852 852 852 852 852 852 852 852
833 834 834 835 835 836 836 836 837 837 837 837 837 837 837 837 837 838 838 838 838 839 839 840 840 841 842 842 843 843 844 845 846 846 846 847 847 847 847 847 847 848 848 849 849 850 850 851 851 851 851 851 851 851 852 852 852 852 852 853 853 853 854 854 853 853 854 854 854 853 853 853 853 853 853 853 853 853 853 853 853 853 853 853 853
833 834 835 836 835 836 836 837 837 837 837 837 837 837 837 837 838 838 839 839 839 840 840 841 841 842 842 843 843 844 845 845 846 847 847 848 848 848 848 848 849 849 850 850 851 851 851 852 852 852 852 852 853 853 853 853 853 853 853 853 854 854 854 854 854 854 854 854 854 854 854 854 854 854 854 854 854 854 854 854 854 854 854 854 854
834 835 835 836 836 837 837 837 837 837 838 838 838 838 838 838 839 839 839 839 840 841 841 842 842 843 843 844 844 844 845 846 847 848 848 849 849 849 849 850 850 850 851 851 852 852 852 852 853 853 853 853 853 854 853 854 854 854 854 854 855 855 855 855 855 855 855 855 854 854 854 854 854 854 855 855 855 855 855 855 855 855 855 854 854
834 835 836 837 837 838 837 838 837 838 838 838 839 839 839 839 840 840 840 840 841 841 842 843 843 843 844 844 845 845 846 847 848 848 849 849 849 850 850 851 851 852 852 852 853 853 853 853 853 853 854 854 854 854 854 855 855 855 855 855 856 856 856 855 855 855 855 855 855 855 854 854 854 855 855 855 855 855 855 855 855 855 855 855 855
835 835 836 837 837 838 838 838 838 839 839 839 840 839 840 840 840 840 840 841 841 842 843 843 844 844 845 845 846 847 847 848 849 849 849 850 850 851 852 852 852 853 853 853 853 853 854 853 854 854 854 855 855 855 855 856 856 856 856 856 857 857 857 856 856 856 856 855 855 855 854 855 855 855 855 855 855 855 855 855 855 854 854 854 854
836 836 837 837 838 838 839 839 839 839 840 840 840 840 841 840 841 840 841 841 842 843 843 844 844 845 846 846 847 848 849 849 850 850 851 851 852 853 853 853 854 854 854 854 854 854 854 854 854 855 855 855 855 856 856 856 856 857 857 857 857 857 857 857 857 856 856 855 855 855 855 855 855 855 855 855 855 855 855 854 854 854 854 854 854
836 837 837 838 838 839 839 839 840 840 840 841 841 841 841 841 841 841 842 842 842 844 844 845 845 846 847 847 848 849 850 850 851 851 852 853 853 854 854 855 855 855 855 854 854 854 854 854 855 855 856 856 856 856 857 857 857 858 858 858 858 858 858 857 857 856 856 856 855 855 855 855 855 855 855 855 855 855 854 854 854 854 853 853 853
837 838 838 839 839 840 840 840 840 840 841 841 842 842 842 842 842 842 842 843 844 844 845 846 846 847 848 849 849 850 851 851 852 853 853 854 854 855 855 855 856 855 855 855 855 855 855 855 855 856 856 857 857 857 857 858 858 858 859 859 859 859 858 858 857 857 856 856 855 855 855 855 855 855 855 855 855 855 855 854 854 854 854 853 853
838 839 839 840 840 841 841 841 841 841 842 842 842 842 842 842 842 843 843 844 845 845 846 847 847 848 849 850 851 851 852 853 853 854 854 855 855 856 856 856 856 856 856 856 856 856 856 856 856 857 857 857 858 858 858 858 859 859 859 860 860 859 858 858 858 857 856 856 856 856 855 855 855 855 855 855 855 855 855 855 854 854 854 853 853
839 839 840 841 841 842 841 842 842 842 843 843 843 843 843 843 843 844 844 845 846 847 847 848 848 849 850 851 852 852 852 853 854 855 855 856 857 857 857 857 857 857 857 856 857 857 857 857 857 857 858 858 858 859 859 859 859 859 860 860 860 859 858 858 858 857 857 856 856 856 855 855 855 855 855 855 855 855 855 855 855 854 854 853 853
839 840 841 842 842 843 843 843 843 843 843 844 844 844 844 844 844 845 845 846 847 848 848 849 849 850 851 852 852 853 853 854 855 856 856 857 858 858 858 858 858 857 857 857 858 858 858 858 858 858 858 859 859 859 859 859 859 859 860 860 860 859 859 858 858 858 857 856 856 855 855 855 855 855 856 856 855 855 855 855 854 854 853 853 853
839 841 842 843 843 844 844 844 844 844 844 845 845 845 846 845 845 846 846 847 848 849 850 850 851 851 852 852 853 854 854 855 855 856 856 857 858 858 858 858 858 858 858 859 859 859 859 859 859 859 859 859 859 859 859 859 859 859 860 860 860 859 859 859 858 858 857 856 855 855 855 855 855 856 856 856 856 855 854 854 853 853 853 853 853
839 841 842 843 844 844 845 845 845 845 845 846 846 846 847 847 846 846 847 848 849 850 851 852 852 853 853 853 854 854 855 856 856 857 857 858 858 859 859 859 859 859 860 860 860 860 860 860 860 860 860 860 860 860 859 859 859 859 860 860 860 860 859 859 859 858 857 856 856 856 856 856 856 856 856 856 856 855 854 854 854 853 853 852 852
839 841 842 844 845 845 845 846 846 846 846 846 847 848 848 848 848 848 849 849 850 851 852 852 853 854 854 855 855 855 856 856 857 858 858 859 859 860 860 860 860 860 861 861 861 860 860 861 861 861 861 861 861 860 860 860 860 860 860 860 860 860 860 859 859 858 857 857 856 856 856 856 856 856 856 856 856 855 855 855 854 854 853 853 853
840 841 842 844 845 845 846 846 847 847 847 847 847 848 849 850 850 850 851 851 852 852 852 853 853 854 855 856 856 856 857 857 858 858 859 859 860 860 860 861 861 861 861 861 861 861 861 861 861 861 861 861 861 861 860 860 860 860 860 861 861 860 860 860 860 859 858 857 857 856 856 856 856 856 856 856 856 855 855 855 855 854 854 853 853
839 841 842 844 845 846 846 846 847 847 848 848 848 849 850 851 851 852 853 853 854 854 854 854 855 855 856 856 856 857 857 858 859 859 860 860 861 861 861 862 862 862 862 861 861 861 861 861 861 861 861 861 861 861 860 860 859 859 860 860 861 860 860 861 860 859 858 858 857 856 856 856 856 856 856 856 856 855 855 855 855 855 854 854 853
839 841 842 843 845 846 846 847 847 848 849 849 850 850 851 852 852 853 854 855 855 856 856 856 857 857 857 858 858 858 859 859 860 860 861 861 862 862 862 862 862 862 862 862 861 861 861 861 862 862 862 862 861 860 860 859 859 859 860 860 861 861 861 862 861 860 859 858 857 857 856 856 856 856 856 856 856 856 856 856 855 855 855 854 854
839 841 842 843 845 846 847 848 848 849 849 850 851 851 852 852 853 853 854 856 856 857 857 858 858 859 859 859 860 860 860 861 861 862 862 862 862 863 863 863 863 863 862 862 862 862 862 862 862 862 862 862 861 860 860 859 859 859 859 860 860 861 862 862 861 860 859 858 858 857 857 857 857 857 857 857 857 857 856 856 856 855 855 855 854
839 840 842 843 845 846 847 848 849 849 850 851 851 852 852 853 853 854 855 856 857 858 858 859 859 860 860 861 861 861 862 862 862 863 863 863 863 863 863 863 863 863 863 863 862 862 862 862 863 862 862 861 861 860 860 860 859 859 860 861 861 861 862 862 861 860 859 859 859 858 858 858 857 857 857 857 857 857 857 856 856 855 855 855 854
839 841 842 843 845 846 847 848 849 850 850 851 852 852 853 854 854 855 856 856 857 858 859 859 860 860 861 861 862 862 863 863 863 864 864 864 864 864 864 864 864 864 863 863 863 862 862 863 862 862 862 861 861 860 860 860 860 860 861 861 861 862 862 861 861 861 860 860 860 859 859 859 858 858 858 858 858 857 857 857 856 856 855 855 854
839 840 842 843 845 846 847 849 849 850 851 852 852 853 854 854 855 856 856 857 858 859 859 860 860 861 862 862 862 863 864 864 864 864 864 864 864 864 864 864 864 864 864 863 863 863 863 863 862 862 862 861 861 860 859 859 860 860 861 862 862 862 862 862 862 861 861 861 861 860 860 860 859 859 859 858 858 858 857 857 857 856 855 855 854
839 840 841 843 844 846 847 849 850 851 851 852 853 854 854 855 856 856 857 858 859 859 860 861 861 862 862 862 863 864 864 864 864 864 865 865 865 865 865 865 865 864 864 864 863 863 863 863 863 862 862 861 860 859 859 859 860 860 861 862 862 862 862 862 862 862 862 861 861 861 861 860 860 860 859 859 859 858 858 857 857 856 855 855 854
838 840 841 842 844 846 848 849 850 851 851 853 853 854 855 856 856 857 858 859 859 860 861 861 861 862 862 863 863 864 865 865 865 865 865 865 865 865 865 865 865 865 864 864 864 863 863 863 863 862 861 860 859 859 859 859 860 860 861 862 862 862 862 862 862 862 862 862 861 861 861 861 860 860 860 859 859 858 858 857 857 856 855 855 854
838 839 841 842 844 846 848 849 850 851 852 853 853 854 855 856 857 858 859 859 860 861 861 862 862 862 862 863 864 864 865 865 865 865 865 865 865 865 865 865 865 865 864 864 864 864 864 863 863 862 861 860 860 859 860 860 860 861 861 862 862 862 862 862 862 862 862 862 862 862 861 861 860 860 860 859 859 859 858 858 857 856 856 856 855
837 839 841 843 845 846 848 849 849 851 852 853 854 854 855 856 857 858 859 860 860 861 861 862 862 862 863 863 864 864 865 865 865 865 865 865 865 865 865 865 865 865 864 864 864 864 864 864 863 862 861 860 860 860 860 860 861 862 862 862 862 862 862 862 862 862 862 862 862 862 861 861 860 860 860 860 859 859 859 858 858 857 856 856 855
837 839 841 843 845 846 847 848 849 850 851 853 854 854 855 856 857 858 859 860 860 861 861 862 862 863 863 863 864 864 865 865 865 865 866 866 866 866 865 865 865 865 865 864 864 864 864 864 863 862 861 861 860 860 861 861 862 862 862 862 862 862 862 862 862 862 862 862 862 862 861 861 861 861 860 860 860 859 859 858 858 857 857 856 856
837 839 841 843 844 846 847 848 849 850 851 853 853 854 855 856 857 858 859 860 860 861 861 862 863 863 863 864 864 864 865 865 865 866 866 866 866 866 866 866 866 865 865 865 864 864 864 864 863 863 862 861 861 861 861 862 862 862 863 863 863 862 863 863 863 863 862 862 862 862 862 861 861 861 860 860 860 859 859 858 858 857 857 856 856
837 839 840 842 844 846 847 848 849 850 851 853 853 854 855 856 857 857 859 860 860 861 861 862 863 863 864 864 864 864 865 865 865 866 866 866 866 866 866 866 866 866 865 865 865 864 864 864 863 863 862 862 861 862 862 862 862 862 863 863 863 863 863 864 863 863 863 863 863 862 862 862 861 861 861 860 860 860 859 859 858 857 857 856 856
836 838 840 842 843 845 847 848 849 850 851 852 853 854 855 856 856 857 858 859 860 861 861 862 863 863 864 864 864 864 865 865 865 866 866 866 866 866 866 866 866 866 865 865 865 864 864 864 864 863 862 862 862 862 862 862 862 863 863 863 863 864 864 864 863 863 863 863 863 862 862 862 861 860 860 860 860 860 859 859 858 857 857 856 856
835 837 839 841 842 844 846 848 849 850 851 852 853 854 854 855 856 857 858 858 859 860 861 862 862 863 864 864 864 865 865 865 866 866 866 866 866 866 866 867 866 866 866 865 865 865 864 864 864 863 863 862 862 862 862 863 863 863 864 864 863 863 864 864 863 863 863 863 862 862 862 861 861 860 860 860 860 860 859 859 858 858 857 856 856
834 836 838 840 842 843 845 847 848 850 851 852 853 853 854 855 855 856 857 858 859 860 861 862 862 863 863 864 864 864 865 865 866 866 866 866 866 866 866 866 866 866 866 865 865 865 864 864 864 863 863 863 862 862 863 863 863 863 863 864 864 864 863 863 863 863 862 862 862 862 861 861 861 860 860 860 860 860 859 859 858 858 857 856 856
833 835 837 839 841 843 845 846 848 849 851 852 853 853 854 855 856 856 857 858 859 860 861 862 862 863 863 864 864 864 865 865 866 866 866 866 866 866 866 866 866 866 866 865 865 865 865 864 864 864 863 863 863 863 863 863 863 863 864 866 866 866 865 864 863 863 862 862 862 862 861 861 861 861 860 860 859 859 859 859 858 858 857 856 856
833 834 836 838 840 842 843 845 847 849 850 852 852 853 854 855 856 857 857 858 859 860 861 862 863 863 863 864 864 864 865 865 866 866 866 866 866 866 866 866 866 866 866 865 865 865 865 865 865 864 864 864 864 863 863 863 863 864 865 867 868 869 871 867 863 863 862 861 861 861 862 861 861 861 860 860 859 859 859 859 858 858 857 856 856
833 834 835 837 839 841 842 844 846 848 850 851 852 853 854 854 855 856 857 858 859 860 861 861 862 863 863 863 864 864 865 865 866 866 866 866 866 866 866 866 866 866 866 865 865 865 865 865 865 865 865 865 864 864 863 863 864 864 865 867 869 871 872 867 865 864 862 861 862 861 862 862 861 861 860 860 859 859 859 859 858 858 857 856 856
832 834 835 836 838 840 842 844 845 847 849 850 851 852 853 854 854 855 856 857 858 859 859 860 861 862 862 863 864 864 865 865 865 866 866 866 866 866 866 866 866 866 866 866 865 865 865 865 865 865 865 865 864 864 864 864 864 864 864 865 866 868 867 865 866 867 863 862 862 862 862 861 861 861 860 860 859 859 859 859 858 858 857 856 855
831 833 835 836 838 840 841 843 845 846 848 849 850 851 852 853 854 855 855 856 857 857 858 859 860 861 862 863 863 864 864 865 865 865 866 866 866 866 866 866 866 866 866 866 865 865 866 866 866 866 865 865 865 864 864 864 864 864 864 864 864 864 864 864 866 867 867 865 862 862 862 861 861 861 860 860 859 859 859 858 858 858 857 856 855
830 833 835 836 837 839 841 843 844 845 847 848 849 850 851 852 853 854 855 856 856 857 858 859 859 860 861 862 862 863 864 864 864 865 865 865 865 866 866 866 866 866 866 866 865 865 866 866 866 866 865 865 865 865 865 865 864 864 864 864 864 863 863 864 864 865 867 868 865 862 862 861 861 861 860 860 860 859 859 858 858 857 857 856 855
829 831 833 835 837 839 841 842 844 845 846 847 848 850 851 851 853 854 855 856 857 857 858 858 859 860 860 861 862 862 863 863 864 864 864 864 865 865 866 866 866 866 866 866 865 865 865 865 865 865 865 865 865 865 865 865 864 864 864 864 864 864 864 864 864 864 864 867 867 864 862 862 861 860 860 860 860 860 859 858 858 857 857 856 855
827 830 832 834 836 838 840 841 842 844 845 847 848 849 850 851 852 853 854 855 857 857 858 858 859 859 860 861 861 862 862 863 863 864 864 864 864 865 865 866 866 866 866 865 865 865 865 865 865 865 865 865 865 865 865 865 864 864 864 864 864 864 864 864 864 864 864 865 866 864 863 862 862 861 860 860 860 860 859 858 857 857 856 856 855
826 828 830 832 835 836 838 840 841 843 844 846 848 849 850 850 851 852 853 855 856 857 857 858 859 859 859 860 861 861 862 862 863 863 864 864 864 865 865 865 865 865 865 865 865 865 865 865 865 865 865 865 865 865 865 865 865 864 864 864 864 864 864 864 864 864 864 864 865 864 863 862 862 861 860 860 859 859 858 858 857 856 856 855 855
Wind_Speed
13 13 13 12 12 13 14 14 15 14 14 14 13 13 13 12 12 12 12 12 14 15 14 14 14 14 15 15 15 15 17 18 18 18 17 17 16 16 17 17 16 16 16 16 17 17 16 16 16 17 17 18 18 18 18 19 19 19 19 19 19 19 19 19 19 19 19 18 18 18 18 17 18 18 18 18 19 19 19 19 19 18 18 18 17
16 15 13 13 13 13 14 13 14 13 13 13 12 12 12 12 12 12 12 13 14 15 15 14 13 14 14 15 14 15 16 17 17 17 17 17 17 16 16 16 16 15 15 16 16 17 17 16 16 17 17 17 18 17 18 18 18 18 18 18 18 18 18 18 18 18 17 17 17 17 17 17 17 17 18 18 18 19 19 19 19 18 18 17 17
16 15 14 13 12 12 12 11 12 12 12 11 11 11 11 12 12 12 12 13 14 15 14 14 14 14 14 14 14 14 15 15 15 16 17 17 16 16 16 16 16 15 15 16 16 17 17 17 16 17 17 17 17 17 18 18 18 18 18 18 17 17 17 17 16 16 17 17 17 17 18 17 17 18 18 18 18 18 19 19 19 18 17 17 17
16 16 14 13 11 10 11 11 11 11 11 11 12 11 12 12 12 13 13 13 14 14 13 13 14 14 14 14 14 15 15 15 15 16 17 17 16 16 16 16 15 15 15 15 16 16 16 16 16 16 17 17 17 17 17 17 17 17 17 16 16 16 16 16 16 16 16 17 18 19 19 17 17 17 17 18 18 18 18 18 17 17 17 16 16
17 16 14 13 11 11 11 11 11 11 11 11 12 11 12 12 12 13 13 13 13 14 13 13 14 14 14 14 14 15 15 15 16 16 17 17 16 15 15 16 15 15 15 15 15 15 16 16 15 15 16 16 16 16 16 15 15 16 15 15 16 16 16 16 16 16 16 17 19 19 19 18 17 17 17 17 17 17 17 16 16 16 16 15 15
18 17 15 14 12 11 11 11 11 11 11 11 11 12 12 12 13 13 13 13 13 13 13 13 14 14 15 15 14 14 15 15 16 16 16 16 15 14 15 15 15 14 15 14 14 15 15 15 15 15 15 15 16 15 14 15 14 15 14 14 15 15 15 16 15 16 16 17 18 19 19 18 17 16 16 16 16 16 16 15 15 15 14 14 14
18 17 15 15 13 12 11 11 11 11 11 11 12 12 12 13 13 13 13 13 14 13 13 13 14 14 15 15 14 14 15 16 17 16 16 16 15 14 14 14 15 14 15 14 14 14 14 14 15 14 14 14 15 14 14 14 14 14 15 14 14 14 14 15 15 15 16 17 17 17 17 17 17 15 15 15 15 14 14 14 13 13 13 13 13
17 16 15 15 13 12 11 11 11 11 11 11 13 13 13 13 13 13 13 13 13 13 13 13 13 14 14 15 15 14 15 17 17 15 15 14 14 14 13 14 14 14 14 15 14 14 14 14 14 14 14 14 14 14 13 14 15 14 14 13 13 14 14 14 14 15 15 16 16 16 16 16 16 15 14 14 13 13 13 13 12 12 12 12 12
18 16 16 15 13 12 11 11 12 12 12 12 13 13 13 13 13 13 13 13 13 13 13 14 14 14 14 15 15 16 16 16 16 15 15 14 14 14 13 14 14 15 14 14 14 14 14 13 14 14 13 14 13 14 14 15 15 14 12 12 14 14 14 13 13 14 14 14 15 15 15 15 15 14 13 12 12 11 11 12 11 11 11 11 11
18 16 15 14 13 12 12 13 12 12 12 12 12 13 13 13 13 13 13 13 13 14 14 14 14 14 15 15 15 16 16 16 16 15 15 15 14 13 13 13 14 15 15 14 14 14 14 13 14 13 13 13 13 14 14 15 15 13 12 12 13 14 14 13 12 12 12 13 14 14 14 14 14 12 11 11 10 10 10 10 10 10 10 10 10
16 16 15 14 14 13 13 12 12 12 11 11 12 12 13 13 14 13 13 13 14 14 14 14 14 14 14 15 15 15 16 16 15 15 14 15 14 14 13 13 14 15 14 13 13 14 14 13 13 13 13 13 12 13 13 14 13 12 12 12 12 13 13 13 12 11 11 12 13 13 13 13 13 12 10 10 10 10 9 9 10 10 9 9 9
16 16 15 14 14 13 13 12 11 12 11 12 12 12 12 13 14 14 13 14 14 14 14 14 14 14 14 14 14 15 15 15 15 15 14 14 14 14 14 13 13 14 13 13 12 13 13 13 13 13 13 12 12 12 12 13 12 11 12 12 13 13 13 12 11 10 9 10 11 12 12 12 11 10 9 9 9 9 9 9 9 9 8 8 8
17 16 15 15 14 12 12 11 11 12 12 13 12 12 12 13 14 14 14 14 14 14 14 14 14 14 14 14 14 14 15 15 15 15 15 15 15 14 14 13 13 14 13 13 12 12 12 13 13 13 13 12 12 12 11 12 12 11 11 12 13 13 13 12 9 9 8 9 10 10 11 11 10 9 8 8 8 8 8 8 8 8 7 7 7
18 16 16 15 14 13 12 12 12 12 12 12 13 12 13 13 14 15 15 14 14 15 14 14 15 15 15 14 14 14 15 15 15 15 15 14 14 13 13 13 14 14 13 13 13 12 12 12 13 13 13 13 13 13 12 12 13 12 12 13 12 12 11 10 8 6 6 7 8 9 10 10 9 8 7 7 7 7 7 7 7 6 6 6 6
19 18 17 15 14 13 12 12 13 12 12 12 13 12 13 14 15 16 15 14 15 15 15 14 15 15 15 15 15 15 15 15 15 15 14 14 14 13 13 14 14 13 12 12 12 12 12 12 13 13 13 13 13 13 14 14 15 14 14 14 13 12 10 9 7 4 3 5 7 8 9 9 8 7 7 7 7 7 7 7 6 6 5 5 5
19 18 17 16 15 14 13 12 13 12 12 12 13 13 13 13 15 15 15 15 15 15 15 15 15 15 15 15 16 16 15 15 15 15 15 15 15 14 14 14 13 12 12 12 12 11 12 13 13 14 13 12 13 14 15 14 13 12 13 13 13 12 10 7 5 4 4 5 7 7 8 8 7 7 7 7 7 7 7 7 7 6 6 5 4
19 18 18 16 15 14 13 12 12 11 12 13 13 13 13 13 15 15 15 15 15 15 16 16 15 16 15 15 16 16 15 15 16 15 15 15 15 15 14 13 12 11 11 11 11 11 11 13 13 13 13 12 13 15 14 13 11 11 12 11 10 10 9 7 4 4 5 5 6 7 7 8 8 8 7 7 7 7 7 7 6 6 5 5 4
19 18 18 16 15 14 14 13 13 12 13 14 14 13 14 14 15 16 16 15 15 15 16 16 16 16 16 15 16 16 16 16 16 15 15 15 14 14 13 12 11 10 10 10 11 11 12 13 13 13 12 12 14 14 13 12 13 13 13 10 8 9 9 7 4 4 4 4 5 6 7 8 8 8 7 7 7 7 7 6 5 5 4 3 3
18 17 16 15 14 14 15 15 15 14 15 15 15 14 15 15 15 16 16 16 16 16 16 16 16 17 16 16 16 16 17 16 16 15 14 14 14 13 12 11 10 10 10 10 12 13 13 13 12 12 12 12 13 13 12 13 14 14 12 9 8 8 9 8 5 4 3 3 5 6 7 8 8 8 7 7 7 6 6 4 4 4 3 2 2
18 15 14 14 15 16 16 16 15 15 16 16 16 15 15 15 16 16 16 16 16 17 17 17 17 17 17 17 16 17 18 17 15 15 14 14 14 13 12 11 11 11 12 12 13 14 14 14 13 13 13 13 13 13 13 13 13 12 10 8 7 8 10 10 7 4 2 2 4 5 6 7 8 7 6 6 6 5 4 3 3 3 2 1 1
17 15 13 15 16 17 17 16 15 16 17 17 17 16 15 16 17 17 17 17 18 18 18 18 17 17 17 17 17 18 18 18 17 16 15 14 13 12 11 11 12 12 13 13 13 14 14 14 14 13 14 14 13 13 12 11 10 10 8 6 6 8 11 10 7 3 1 2 4 4 5 6 6 6 5 5 5 4 4 3 3 2 1 1 0
18 15 14 16 17 18 17 16 17 17 17 17 18 18 17 17 18 18 18 19 19 19 19 19 18 18 17 18 18 18 18 18 17 16 15 13 12 11 11 12 13 13 13 12 12 12 12 13 13 13 14 14 12 11 10 8 7 7 6 4 5 9 11 9 6 2 0 2 4 4 5 5 5 5 5 4 4 4 4 4 5 4 2 1 1
18 18 16 16 19 19 18 18 18 18 18 18 19 19 19 18 18 18 19 20 20 20 20 19 19 19 18 17 18 17 16 16 15 15 14 13 12 12 12 13 13 12 12 11 11 11 11 11 11 12 12 11 10 10 9 7 6 5 5 4 6 10 10 8 5 0 0 2 3 4 5 5 5 5 5 5 5 4 3 3 4 4 3 2 2
19 19 17 17 19 19 18 18 18 19 19 20 21 21 21 20 19 20 20 20 20 20 20 20 19 18 16 15 15 14 14 14 14 14 14 14 13 13 13 12 12 12 11 10 9 9 8 7 8 9 9 9 8 8 8 7 7 6 7 6 5 10 10 7 3 2 1 2 3 4 4 4 5 5 5 5 4 3 2 1 2 3 2 2 2
19 18 17 18 19 19 18 17 17 19 20 21 21 21 21 22 21 21 20 19 18 19 18 18 17 16 15 15 14 14 14 14 14 15 15 15 15 15 14 13 12 11 9 7 6 4 4 3 3 4 5 5 5 6 6 7 6 5 6 5 4 10 10 6 1 3 1 2 3 3 4 4 4 4 4 3 3 2 1 2 3 3 3 2 0
19 18 18 19 19 19 18 18 18 19 20 21 21 21 21 22 22 21 21 19 18 17 16 15 15 15 15 15 15 15 14 14 15 15 16 16 16 15 14 12 10 8 5 3 2 1 2 2 2 3 3 4 6 6 7 7 6 5 5 4 5 10 10 5 2 3 2 3 4 4 4 4 4 4 4 3 3 4 4 4 5 4 3 2 1
19 18 18 19 18 18 20 20 19 19 20 20 21 21 21 21 21 21 21 20 18 16 15 15 14 14 14 14 15 14 14 14 14 15 15 16 15 14 11 8 6 4 2 1 1 2 3 3 3 3 4 5 7 8 8 8 7 6 4 5 8 11 9 4 3 5 4 5 5 5 5 5 5 5 5 6 6 7 6 6 5 4 3 2 2
19 19 19 19 18 18 20 20 19 20 20 20 21 20 20 19 19 19 19 19 17 17 16 15 14 14 14 14 14 14 14 14 14 14 14 14 12 9 6 5 4 2 1 0 0 1 3 3 3 4 5 6 7 7 9 9 8 6 5 7 10 11 8 4 3 6 7 7 8 8 7 7 7 7 8 8 8 7 6 5 4 4 3 3 3
21 21 20 19 18 17 19 20 20 21 21 20 20 19 18 18 18 19 19 18 17 17 17 15 15 15 15 14 14 14 15 15 15 14 12 11 8 5 4 3 3 2 1 1 1 0 1 2 2 3 5 7 6 7 8 8 8 7 6 9 10 10 8 5 3 6 9 10 11 10 9 8 9 8 8 7 6 5 3 3 2 2 3 4 5
22 22 21 19 18 18 18 19 20 21 21 21 20 19 18 18 19 18 18 17 17 16 16 15 16 16 15 14 14 14 15 15 14 12 10 8 6 4 3 2 2 1 2 2 2 1 0 0 1 3 5 5 3 4 7 7 8 9 8 10 10 8 7 6 4 6 9 10 10 10 9 8 8 7 6 5 4 3 2 2 2 2 3 4 5
23 22 21 20 20 19 19 19 20 21 21 21 20 19 19 19 19 18 18 17 16 14 14 15 15 14 13 13 12 12 12 12 10 9 7 6 5 4 4 4 4 4 3 2 1 1 1 1 2 4 5 4 2 3 6 7 10 11 11 12 10 8 7 6 5 6 7 8 8 8 7 7 6 5 5 4 3 3 3 4 3 3 3 3 4
22 22 22 21 21 21 20 19 19 20 21 21 21 21 21 20 19 18 17 16 15 14 13 14 14 12 12 12 11 10 10 10 9 8 7 6 6 6 6 6 5 4 3 2 1 1 2 3 4 4 5 4 3 2 4 10 13 12 12 13 11 8 7 6 5 5 5 5 4 4 5 5 4 4 3 3 3 3 4 4 4 4 4 4 4
21 22 22 22 23 22 21 20 19 19 19 20 21 22 22 20 19 18 16 15 14 14 14 14 13 13 13 12 12 10 9 9 9 8 8 8 8 8 7 6 5 4 4 3 2 2 2 3 4 4 4 5 4 2 3 10 14 13 12 13 13 9 7 7 6 5 5 4 3 3 3 3 3 4 3 3 3 3 4 4 4 4 4 5 5
21 21 23 23 24 23 21 20 19 18 18 18 20 21 20 19 19 18 16 15 14 14 14 13 12 13 13 13 13 11 9 9 9 9 9 10 9 8 7 6 5 4 4 3 2 1 1 2 3 4 6 8 6 4 7 10 12 12 11 12 13 11 9 8 6 4 4 4 3 3 2 2 2 3 3 3 3 4 4 5 5 5 5 6 6
22 23 23 24 25 23 21 20 18 17 17 18 18 18 18 19 19 19 17 16 16 16 16 15 15 15 15 15 14 12 10 10 10 10 10 10 8 8 7 6 5 3 3 3 2 2 2 3 5 6 8 9 6 4 8 11 13 11 10 10 10 10 10 9 6 5 4 4 3 3 3 2 2 2 3 3 3 3 4 5 5 6 6 7 7
24 25 24 25 23 21 20 20 18 17 18 18 17 17 18 18 19 19 17 17 19 19 18 16 16 18 18 17 15 13 12 11 10 10 10 8 7 7 6 6 4 3 3 3 3 3 3 4 6 8 9 10 7 5 8 12 13 10 8 8 7 8 11 9 7 6 3 2 2 2 2 1 1 2 3 3 2 2 3 4 4 5 6 7 6
26 26 25 24 21 20 21 21 19 18 18 18 17 16 16 17 17 17 18 18 18 17 18 17 15 16 17 16 14 13 12 11 10 9 8 8 8 8 6 5 3 3 4 4 4 4 4 4 5 8 10 9 7 6 8 10 10 8 7 8 7 8 10 8 7 6 3 2 1 1 1 0 0 1 2 3 2 2 2 2 2 3 4 5 5
26 26 24 22 21 21 21 22 22 21 20 19 18 16 16 15 16 17 18 17 15 15 16 16 15 15 15 15 14 13 11 10 10 9 9 9 8 7 5 4 3 3 4 5 5 4 4 5 6 8 10 7 6 6 7 7 6 5 6 9 8 8 9 6 6 5 4 3 1 1 1 2 1 2 2 2 2 2 2 2 1 2 3 3 4
26 25 23 22 22 22 22 22 21 21 20 20 19 18 16 16 19 19 17 15 15 16 15 14 14 14 16 16 14 13 11 9 10 10 10 9 8 6 5 4 3 3 4 5 5 5 5 6 7 8 9 7 5 5 4 5 5 6 7 8 8 8 7 5 5 4 4 4 2 1 2 2 2 2 2 1 0 1 1 1 2 3 2 3 4
26 26 25 24 23 23 23 21 19 20 22 21 20 19 16 16 20 19 17 17 17 17 15 13 12 12 15 17 15 13 11 10 10 10 11 10 8 6 5 5 4 3 4 4 5 5 6 7 8 9 10 8 4 4 4 5 10 10 9 8 7 6 5 4 4 4 5 5 4 3 3 4 3 3 3 2 2 1 2 3 4 4 3 3 4
27 28 27 26 25 24 23 20 19 21 23 21 20 20 17 16 18 19 18 18 18 18 17 15 12 10 12 15 15 13 12 11 11 12 12 11 9 6 5 5 5 4 4 3 4 5 6 6 7 8 9 9 6 4 4 8 12 10 8 7 5 4 3 3 3 4 5 4 5 6 6 6 4 3 3 2 2 2 2 4 5 5 4 4 5
28 29 27 27 26 24 23 21 19 20 21 21 20 19 16 15 17 19 19 18 19 18 17 16 12 10 11 13 14 14 13 12 11 11 11 10 8 7 5 4 5 4 3 3 3 4 6 6 7 9 8 7 6 6 4 7 8 6 6 4 2 1 2 2 2 3 4 5 5 7 8 7 5 4 2 3 3 3 1 3 4 5 5 6 6
29 29 28 27 26 24 24 21 20 21 21 20 20 17 14 14 15 18 19 18 18 17 16 14 11 10 12 11 11 13 13 11 10 10 10 9 7 6 5 4 4 3 3 3 3 3 5 7 8 8 8 6 4 6 5 5 7 7 5 2 2 1 1 2 1 2 2 5 7 8 9 8 5 4 4 4 4 3 2 1 3 4 5 6 7
27 28 28 28 27 26 24 22 22 22 21 20 18 15 14 15 15 16 16 17 17 17 15 13 12 11 11 10 10 12 13 11 11 10 8 7 7 6 6 4 3 3 3 3 3 3 5 7 7 7 7 7 5 5 5 4 7 7 3 2 1 2 1 3 2 1 4 2 6 9 11 10 7 5 5 6 6 4 4 3 3 3 4 5 7
27 28 29 30 28 27 25 23 24 23 21 20 17 15 16 18 17 16 16 15 15 16 15 13 14 15 12 11 10 11 12 11 11 11 7 6 7 6 5 4 4 4 3 3 2 3 4 5 6 6 7 7 6 4 3 4 4 3 2 2 1 1 2 2 3 2 4 6 3 6 8 8 7 5 5 7 7 6 6 6 5 4 5 6 7
26 28 30 29 29 28 25 23 24 25 23 20 17 17 18 19 19 18 17 17 15 16 17 15 16 17 13 11 10 10 12 11 10 9 7 6 7 6 5 4 5 5 3 2 2 3 3 3 4 4 5 5 5 5 5 5 5 5 4 2 1 2 2 1 1 1 4 5 4 3 3 1 2 3 4 6 8 8 7 7 6 6 7 8 7
27 28 28 28 29 27 25 24 24 25 24 20 19 19 18 18 19 19 19 19 18 18 18 16 16 15 13 11 11 12 11 10 9 8 7 7 7 7 6 5 5 4 3 2 1 2 2 2 3 2 3 3 4 6 8 7 7 7 6 5 3 2 1 1 1 1 2 2 2 2 1 2 3 2 3 4 5 5 5 6 6 6 8 9 9
28 27 26 27 29 27 25 25 24 24 23 22 20 20 20 19 19 19 19 18 19 19 19 16 15 14 12 11 12 13 11 10 9 8 7 7 8 8 6 6 5 4 3 2 0 2 3 2 1 1 0 1 3 6 8 8 8 8 7 6 5 1 1 2 1 1 2 1 3 2 2 5 5 2 3 5 5 2 3 6 7 8 9 10 11
28 28 26 27 29 28 27 26 25 24 23 22 21 20 20 20 20 20 19 18 18 18 18 15 15 15 13 11 13 13 11 11 10 8 7 7 7 7 7 6 5 4 4 2 1 3 4 2 1 1 1 0 2 4 5 7 8 8 8 7 6 4 1 1 1 1 2 1 2 3 5 9 8 5 3 4 5 4 4 6 7 9 10 10 10
29 28 27 28 30 29 29 27 26 25 24 22 21 20 20 20 21 21 19 18 17 17 16 16 16 15 14 14 14 13 12 12 11 9 7 7 7 7 7 7 5 4 4 3 4 5 5 4 3 3 2 2 1 1 2 4 6 6 7 7 6 5 2 2 2 1 2 2 1 3 6 7 7 8 8 6 7 7 6 7 8 10 10 9 10
29 29 28 29 31 31 30 29 27 26 24 23 22 21 20 20 21 22 21 20 19 18 18 19 17 16 16 16 15 14 13 12 11 10 8 8 8 7 8 8 6 5 5 5 5 5 6 5 3 4 4 3 2 2 1 2 5 5 6 6 7 6 3 1 1 1 1 0 0 3 6 6 6 9 10 9 8 7 9 10 10 10 10 11 13
Wind_Direction
163 145 137 134 130 128 122 121 115 113 111 109 108 107 108 106 108 109 108 111 116 116 113 112 114 118 119 118 116 114 114 113 114 116 116 113 112 109 107 106 108 108 109 109 108 106 104 102 102 102 101 99 97 96 97 97 97 96 96 95 93 93 95 96 96 96 95 96 96 96 95 96 98 98 98 99 101 101 101 100 100 99 100 103 105
156 146 141 136 134 130 123 120 116 117 117 116 116 115 114 112 112 112 114 114 117 118 117 118 120 123 122 120 119 119 119 117 117 118 117 114 113 112 111 111 111 110 111 112 110 108 107 105 103 103 102 100 99 99 99 99 98 97 96 94 94 93 93 94 95 96 97 97 97 97 98 97 99 99 99 100 100 100 100 100 100 98 97 99 99
151 150 146 143 142 132 125 121 120 123 123 125 125 123 119 117 116 116 119 118 119 121 123 126 126 126 125 123 123 123 123 121 119 118 116 115 115 115 115 115 113 112 113 112 109 108 107 105 103 104 103 102 101 101 101 101 101 99 97 95 95 94 92 92 93 96 99 99 99 99 99 98 99 100 101 101 100 99 99 100 100 99 98 98 96
155 152 147 146 143 134 130 127 126 128 130 130 127 125 122 120 120 121 124 123 124 126 128 129 128 127 125 125 126 126 123 121 121 120 119 119 118 117 117 115 113 113 114 113 109 107 105 104 103 105 106 105 105 103 102 102 103 101 99 98 97 96 95 94 93 95 100 101 103 102 99 98 99 100 101 102 101 100 99 97 97 97 97 97 96
155 150 146 144 144 142 136 133 132 134 134 131 129 126 123 123 125 125 125 127 128 129 132 130 129 128 125 127 129 127 124 122 122 124 124 122 121 120 119 117 114 112 113 113 111 108 105 105 104 106 108 108 108 106 104 104 105 103 101 100 100 98 96 96 95 96 101 103 104 103 101 99 99 98 99 100 100 99 99 99 98 99 99 98 98
154 150 148 147 146 145 138 139 139 140 138 135 135 132 129 128 129 131 130 131 133 134 135 133 130 128 126 127 127 126 125 124 124 126 127 123 123 123 120 118 116 113 111 112 111 108 105 106 105 106 109 110 109 108 106 105 104 104 103 101 100 100 99 98 98 99 102 103 102 102 102 101 100 98 99 99 99 99 99 100 101 101 101 101 100
154 150 150 149 146 146 144 143 142 143 142 141 140 136 134 133 132 134 134 136 138 138 136 135 132 130 127 126 127 128 128 127 126 128 130 126 125 126 121 119 118 116 113 112 111 109 107 107 107 107 110 111 112 111 107 105 105 104 103 101 99 100 101 102 102 102 105 105 104 104 104 103 101 100 100 100 99 99 99 99 100 102 103 103 103
152 151 151 149 147 147 144 143 143 144 142 144 144 141 139 135 135 136 138 139 141 139 136 134 131 129 128 129 129 130 130 128 129 131 131 127 126 125 120 120 119 119 116 114 112 110 109 108 108 108 112 114 115 113 110 108 107 105 103 100 100 101 104 105 103 103 104 105 106 105 105 104 103 101 100 100 100 100 100 99 98 101 102 103 104
151 152 150 148 146 146 146 146 143 142 143 146 146 145 143 140 139 139 141 141 141 138 133 132 130 131 132 132 130 131 131 128 130 134 131 128 125 123 120 120 119 119 117 116 114 111 112 111 111 111 113 116 117 114 111 108 106 105 102 101 101 103 106 105 102 103 103 104 106 105 104 104 103 101 101 100 99 100 101 102 100 101 102 102 101
152 150 148 146 147 151 150 145 141 143 144 143 145 146 147 146 143 141 142 142 141 138 133 131 130 134 135 133 132 133 134 130 132 133 131 129 126 122 120 119 119 118 118 119 118 116 116 113 114 114 115 117 117 116 110 105 104 104 105 104 103 103 105 104 102 102 104 108 109 107 105 104 102 100 102 101 100 100 99 101 102 102 103 103 101
153 151 151 149 147 149 145 141 141 142 141 139 140 141 145 148 147 144 142 141 140 139 135 134 133 135 136 136 136 136 134 132 133 131 130 130 127 122 119 118 118 119 120 121 120 120 120 118 117 116 117 119 118 117 111 106 105 106 109 106 105 107 107 108 108 103 105 113 114 111 110 108 106 106 107 105 105 104 102 104 105 105 106 104 101
155 153 151 147 143 143 141 139 138 136 135 135 133 132 138 144 146 143 140 140 139 139 138 138 138 137 139 139 137 135 134 133 134 132 131 130 126 123 119 117 117 118 119 120 121 123 123 121 121 120 121 120 115 116 113 108 105 106 110 109 111 113 112 115 115 108 107 114 116 114 114 112 110 110 111 110 109 107 106 108 107 106 105 104 102
152 150 145 142 140 141 140 136 135 131 132 132 132 134 134 139 143 142 140 140 140 140 140 141 140 139 139 138 136 136 135 134 134 133 132 131 127 123 119 117 118 118 118 120 123 125 125 124 124 124 124 123 120 122 120 110 109 115 117 116 120 119 117 121 121 112 107 112 117 116 116 115 113 112 114 115 113 111 109 108 106 105 106 104 102
145 144 141 140 139 140 139 138 136 132 134 135 137 139 137 138 140 141 140 142 143 143 141 141 142 139 138 137 137 139 138 135 133 131 131 131 128 124 121 121 121 120 120 122 124 125 127 127 127 130 129 129 129 130 127 115 114 118 121 123 125 123 124 130 131 115 102 114 120 120 120 117 117 118 119 117 113 110 108 108 106 105 106 105 103
141 142 139 139 138 139 141 142 140 135 137 140 141 141 139 139 139 141 141 143 143 142 140 140 142 139 138 138 137 137 138 137 134 133 133 133 131 129 126 124 120 119 120 123 125 124 127 129 131 135 133 130 129 130 127 119 115 115 119 125 128 130 135 142 144 128 114 131 132 128 125 122 125 129 133 132 128 126 123 122 118 115 110 106 110
139 140 139 140 140 141 143 140 136 134 138 143 142 139 138 138 139 140 140 142 142 141 140 140 141 138 138 137 135 135 136 137 136 136 137 136 132 131 128 122 118 119 122 124 124 124 127 131 133 137 135 130 130 133 132 127 123 122 124 128 132 135 145 153 149 138 128 140 143 140 135 131 136 136 137 136 132 133 129 122 117 114 110 110 110
140 141 141 143 143 141 139 133 131 133 137 139 138 135 134 135 138 141 141 142 140 141 141 140 139 135 135 134 134 134 134 136 137 137 137 133 130 127 124 120 120 121 122 123 124 128 132 133 136 137 136 134 136 140 141 139 136 137 136 133 137 142 160 168 148 134 124 138 150 150 146 141 141 137 136 134 131 131 128 123 121 123 130 141 141
142 143 144 145 143 141 137 134 135 136 136 136 135 134 132 135 139 139 139 140 138 138 139 138 136 132 132 132 134 136 135 136 136 138 136 132 129 125 121 120 122 122 121 123 126 131 136 136 137 137 138 139 144 147 147 146 143 145 142 136 139 147 170 181 167 145 124 135 152 156 153 146 143 142 143 141 139 137 134 135 140 146 144 143 142
138 141 145 147 146 142 139 139 139 136 137 135 133 132 134 137 138 136 136 137 135 135 135 133 132 130 130 130 132 135 134 133 135 137 135 133 131 126 123 125 126 124 123 124 125 127 130 132 134 137 140 144 150 153 152 150 147 148 146 143 137 145 175 191 190 168 136 138 153 161 156 148 147 147 148 147 145 139 132 128 128 129 116 84 77
136 145 147 150 149 138 134 137 138 136 136 134 132 133 134 135 135 134 134 135 134 132 130 130 130 129 130 130 132 134 132 132 133 131 130 130 128 125 126 131 131 128 124 122 120 120 122 125 130 136 140 144 148 151 153 152 153 155 153 152 145 157 189 201 200 179 145 141 156 169 160 150 150 149 149 149 146 134 120 113 113 113 116 107 89
141 153 154 153 146 134 131 134 137 136 133 131 131 130 128 132 132 131 130 129 130 130 130 131 130 129 131 133 135 134 131 131 132 128 127 124 122 127 135 138 134 127 122 119 119 120 122 127 132 136 140 143 146 150 153 155 161 164 161 150 151 180 199 203 198 180 147 156 166 174 163 156 157 158 156 150 148 142 137 159 185 176 177 205 275
142 151 154 152 143 135 134 134 136 134 131 130 129 125 125 129 129 129 128 128 130 133 134 134 132 131 133 133 134 132 129 132 131 128 128 128 132 139 140 135 129 123 120 120 121 124 129 133 136 140 142 145 147 151 154 159 167 169 165 144 157 191 198 195 189 178 193 166 173 177 167 165 167 173 171 162 165 169 175 194 203 197 190 223 275
144 149 152 149 141 138 136 136 137 135 132 131 129 127 128 129 128 127 128 129 132 134 134 134 133 131 132 132 132 130 130 133 131 130 133 137 140 136 133 130 125 122 120 121 123 124 126 129 135 141 146 149 151 154 156 161 163 159 154 136 167 195 194 187 184 191 289 153 166 180 174 174 179 185 186 185 193 190 181 192 191 184 187 203 248
149 151 153 149 143 139 137 139 138 135 134 133 132 131 131 131 130 128 127 130 131 131 130 131 130 127 129 130 130 129 129 133 135 137 137 136 134 132 132 129 126 123 121 121 122 123 123 122 128 138 145 151 154 160 162 164 160 152 144 129 170 200 196 183 170 9 357 139 154 172 174 181 189 190 190 188 192 193 175 164 159 158 164 170 232
155 155 155 150 146 142 140 142 141 139 136 135 134 133 134 132 131 129 128 130 129 127 127 128 127 128 131 131 131 131 131 133 134 135 134 132 132 132 130 127 125 123 122 121 121 124 128 126 138 154 162 169 176 181 183 180 173 163 155 142 179 200 193 176 104 4 28 123 139 152 161 178 187 183 183 182 171 161 99 78 88 102 112 105 168
158 159 157 150 147 146 145 144 143 141 139 138 136 135 137 135 133 132 130 130 129 128 129 130 130 131 131 132 133 132 131 130 130 131 131 130 130 129 127 126 125 121 122 127 145 193 227 250 258 249 247 251 249 238 227 216 205 197 179 159 186 196 186 164 38 14 75 112 125 132 140 155 163 160 158 153 121 101 92 89 88 89 87 66 14
160 159 159 153 149 150 149 147 146 143 140 140 139 139 139 138 136 136 136 136 136 137 138 136 135 134 132 132 132 131 133 133 133 132 131 131 131 131 130 129 126 121 122 162 221 245 262 273 282 282 289 289 276 256 240 229 217 211 196 173 190 195 178 150 49 48 85 107 115 118 120 126 127 126 122 116 107 102 102 98 91 80 66 41 355
160 160 162 158 153 154 153 152 149 146 146 145 143 143 142 142 141 142 143 144 145 144 142 139 138 139 136 135 137 137 140 141 141 139 137 137 136 135 135 136 130 114 115 157 295 291 288 289 291 292 303 307 293 258 230 216 204 195 197 186 187 188 175 159 67 60 85 102 101 100 106 109 109 109 110 112 111 110 107 100 84 68 48 21 356
159 161 164 161 156 157 157 157 155 152 151 150 148 148 149 147 145 144 142 143 145 144 143 142 141 142 141 141 143 145 149 149 148 147 147 147 146 143 139 137 122 102 143 133 80 2 286 288 293 315 321 320 306 249 213 197 187 171 179 182 177 179 177 169 110 76 89 99 96 94 99 105 107 107 109 112 115 114 106 96 74 50 25 7 353
159 163 164 161 159 158 158 159 158 156 154 154 153 153 155 153 147 144 143 143 143 143 145 146 146 148 147 144 143 146 151 152 150 150 152 155 158 159 160 158 153 170 178 147 114 140 193 283 300 334 331 332 333 223 203 193 179 159 164 175 168 171 171 157 135 99 94 99 96 93 96 105 111 111 112 108 103 97 79 58 35 19 5 357 348
160 165 166 163 162 161 160 160 159 157 155 154 154 154 157 154 148 146 144 143 144 149 153 154 155 156 152 147 145 146 149 151 152 152 155 164 173 181 186 176 168 169 163 154 154 203 226 321 318 333 332 338 0 220 223 219 192 164 165 176 169 167 169 160 149 120 102 99 95 91 91 100 111 114 117 112 92 74 59 47 32 19 6 0 357
163 168 170 167 166 165 161 159 158 158 158 156 154 154 154 152 149 149 147 145 150 157 163 165 164 164 163 161 160 157 151 149 149 148 149 162 168 165 164 158 153 152 152 164 210 248 275 322 322 318 327 332 329 294 237 218 200 178 171 177 178 175 175 173 156 131 111 101 95 90 85 87 91 94 100 109 94 76 62 53 42 33 28 26 24
167 169 170 169 168 167 164 161 160 160 160 159 157 155 155 155 154 154 154 154 159 164 169 171 172 177 178 175 176 169 156 149 148 147 147 152 153 152 150 146 146 151 155 169 199 245 282 308 309 309 331 352 11 60 172 200 201 195 182 180 187 188 187 183 164 137 117 103 100 97 85 80 83 81 76 81 82 76 69 62 55 49 47 48 48
166 168 168 169 168 166 166 165 164 162 161 161 161 160 160 161 160 160 161 162 165 167 164 160 161 174 181 181 181 173 162 158 157 156 155 152 150 151 150 143 146 162 169 171 161 156 317 331 336 349 7 19 38 98 149 175 190 192 187 184 189 193 191 183 169 150 129 113 111 109 98 89 94 84 74 76 78 73 67 64 63 60 54 54 56
164 166 166 166 166 166 168 167 164 162 161 163 163 162 161 162 162 163 163 162 163 163 159 153 145 147 156 166 169 163 159 161 159 159 159 157 157 158 153 143 142 149 160 154 120 106 78 44 26 22 30 38 56 115 149 165 176 175 172 173 178 190 190 183 175 163 145 126 120 117 111 105 102 84 72 74 81 81 68 63 63 62 59 54 53
163 164 163 163 164 166 170 170 166 161 160 161 159 158 160 161 163 165 165 163 162 164 166 164 151 145 147 151 154 154 156 160 161 164 166 165 161 155 146 137 130 128 134 130 115 101 83 61 35 27 31 40 59 104 139 156 166 160 151 155 163 182 184 185 184 173 169 165 140 124 124 118 112 87 84 86 88 91 75 67 65 60 56 53 52
162 162 163 165 167 169 171 170 170 169 167 163 157 156 161 164 168 169 169 169 170 173 174 173 165 158 157 156 156 157 160 164 165 167 171 169 158 150 143 135 126 129 128 125 122 103 79 62 42 30 24 32 60 101 136 144 151 150 140 139 150 169 173 180 187 185 204 207 204 242 245 264 186 141 112 107 101 98 88 88 74 43 34 39 46
163 164 167 168 167 167 168 167 169 174 173 168 162 161 165 170 169 165 166 169 169 170 173 176 176 173 172 168 165 164 163 168 172 171 165 158 152 146 141 140 142 143 126 116 114 95 69 49 39 34 28 41 74 98 142 149 149 164 151 135 138 155 162 172 186 201 224 225 254 268 271 286 237 191 152 124 116 104 93 98 62 9 1 6 18
166 168 169 166 164 165 170 169 171 174 169 165 164 164 169 171 164 161 166 166 159 158 163 169 173 177 178 172 170 169 166 169 176 177 167 159 157 153 147 146 151 150 124 106 101 85 70 48 35 38 45 66 87 78 119 161 167 175 169 149 143 150 156 166 188 211 219 227 250 208 195 227 219 194 181 179 229 68 54 50 31 16 9 4 2
169 169 166 165 165 167 170 169 169 170 165 164 167 169 172 170 166 169 173 169 164 163 163 165 164 172 176 172 171 171 168 168 173 175 171 169 168 164 156 143 135 138 127 103 94 82 66 47 36 39 51 70 87 66 76 136 150 155 157 153 151 157 166 183 208 225 224 233 252 243 215 214 223 205 190 228 274 334 29 34 38 38 33 24 16
167 166 165 166 166 166 168 166 164 165 166 167 170 172 173 167 165 171 172 169 173 173 172 173 169 171 173 172 174 172 166 165 168 170 171 173 172 168 159 149 139 141 142 108 88 76 55 44 44 42 48 62 72 69 90 136 144 144 143 140 146 167 183 198 220 234 237 254 270 258 229 200 193 174 173 222 265 302 27 46 48 51 45 30 23
164 165 165 166 166 168 170 169 168 168 168 169 170 173 174 170 165 166 164 163 170 174 175 175 174 177 176 172 176 177 169 164 168 172 175 176 176 170 162 163 163 157 154 122 86 70 54 50 52 46 50 62 65 65 97 150 151 143 139 120 80 205 210 216 222 229 242 255 255 241 216 192 175 165 189 244 258 275 341 46 45 46 37 22 15
163 165 166 167 168 170 172 173 172 169 170 172 176 177 176 176 169 166 165 162 164 169 171 172 175 180 177 176 183 185 178 170 170 176 179 178 176 173 163 165 175 165 145 122 97 72 66 63 52 43 49 64 65 60 73 139 156 147 128 89 11 346 312 316 235 191 273 252 224 214 214 206 193 192 229 261 261 262 275 0 26 26 22 17 15
162 164 166 167 169 171 174 176 173 171 173 176 179 179 173 171 169 169 172 169 167 168 168 173 182 179 177 181 186 188 186 180 174 174 179 181 178 178 174 167 161 145 131 122 102 86 82 69 55 45 44 52 55 49 55 104 154 162 126 87 51 40 352 327 324 333 30 55 198 210 221 223 222 224 248 263 261 264 280 293 326 353 357 1 12
163 165 167 169 170 173 176 178 177 174 175 177 181 180 168 165 165 166 172 173 172 175 173 174 180 182 182 183 183 185 187 184 179 175 177 184 184 185 186 174 150 136 133 127 111 108 94 70 60 54 42 46 48 45 54 74 120 155 117 104 74 31 238 282 335 339 35 67 138 201 216 227 236 246 266 270 262 263 282 295 297 318 337 337 349
166 167 168 171 173 175 178 179 178 177 177 179 185 185 173 168 167 165 169 172 174 181 180 175 180 185 188 188 184 178 176 176 178 180 184 188 185 186 191 186 166 149 138 117 109 120 109 87 76 58 35 41 50 56 59 60 76 76 48 46 344 295 240 241 72 328 2 46 89 141 169 243 267 264 286 286 278 270 277 295 293 303 326 325 329
168 169 169 173 175 177 178 177 177 179 181 183 187 188 183 180 176 172 174 175 177 181 182 181 187 191 193 193 184 171 170 175 181 191 199 195 186 186 191 191 182 165 153 132 104 133 141 120 85 56 29 44 65 61 53 52 64 56 36 33 0 303 289 17 131 201 338 4 24 87 129 16 8 2 5 343 307 272 272 299 304 312 326 325 325
167 169 170 175 178 179 178 177 180 184 186 186 188 190 190 190 185 179 179 180 181 180 181 186 193 193 194 192 183 175 179 188 194 200 206 203 193 189 192 190 188 188 178 168 151 167 175 176 70 66 87 68 69 61 54 51 47 34 31 43 39 28 249 330 348 139 128 216 316 323 314 341 347 338 7 9 359 323 295 317 321 326 334 333 329
170 171 173 176 180 180 178 179 185 188 189 188 187 188 191 192 188 182 182 184 184 182 184 190 192 193 194 187 180 181 191 199 203 206 206 209 203 193 193 187 190 202 196 200 201 178 181 202 234 212 211 1 51 54 53 51 39 26 24 31 42 69 111 64 55 93 101 111 290 294 319 336 340 336 348 358 356 353 333 338 345 342 342 342 338
174 174 175 176 178 180 180 182 186 187 188 188 186 187 189 189 186 184 184 185 187 186 189 190 189 194 196 187 183 188 195 199 202 208 209 209 207 200 197 184 178 198 204 205 199 189 192 199 216 224 244 285 302 48 49 45 35 27 26 21 24 38 60 88 95 104 98 101 235 279 317 332 326 329 346 344 335 341 337 336 338 337 339 339 339
176 177 177 177 177 180 183 185 187 188 188 187 186 188 188 185 184 184 183 184 187 188 188 188 188 192 191 189 192 194 197 199 202 210 213 207 203 201 199 187 181 203 210 207 207 203 202 201 212 234 251 275 272 253 251 48 40 28 18 6 5 5 357 14 52 122 154 138 191 287 313 329 310 312 335 338 329 334 336 330 324 327 333 332 334